Weather History for Stanton, MN

Change the Weather History Date:

Friday, October 12, 2012

  Actual Average (KLVN) Record (KLVN)
Temperature  
Mean Temperature 35 °F -  
Max Temperature 53 °F 60 °F 85 °F (1956)
Min Temperature 17 °F 38 °F 19 °F (2012)
Degree Days  
Heating Degree Days 30    
Moisture  
Dew Point 16 °F    
Average Humidity 50    
Maximum Humidity 85    
Minimum Humidity 19    
Precipitation  
Precipitation 0.00 in - - ()
Sea Level Pressure  
Sea Level Pressure 30.31 in    
Wind  
Wind Speed 4 mph (SSE)    
Max Wind Speed 17 mph    
Max Gust Speed 23 mph    
Visibility 10 miles    
Events Rain    
Averages and records for this station are not official NWS values.
T = Trace of Precipitation, MM = Missing Value Source: NWS Daily Summary

Daily Weather History Graph

Daily Weather History Graph

Search for Another Location

Airport:

Trip Planner

Search our weather history database for the weather conditions in past years. The results will help you decide how hot, cold, wet, or windy it might be!

Date:

Astronomy

Oct. 12, 2012 Rise Set
Actual Time 7:24 AM CDT 6:32 PM CDT
Civil Twilight 6:54 AM CDT 7:01 PM CDT
Nautical Twilight 6:21 AM CDT 7:34 PM CDT
Astronomical Twilight 5:47 AM CDT 8:08 PM CDT
Moon 4:01 AM CDT (10/12) 4:47 PM CDT (10/12)
Length of Visible Light 12h 06m
Length of Day
11h 07m
Waning Crescent, 10% of the Moon is Illuminated
Oct 12
Waning Crescent
Oct 15
New
Oct 21
First Quarter
Oct 29
Full
Nov 6
Last Quarter

Hourly Weather History & Observations

Time (CDT) Temp. Windchill Dew Point Humidity Pressure Visibility Wind Dir Wind Speed Gust Speed Precip Events Conditions
12:12 AM 25.9 °F - 17.8 °F 71% 30.38 in 10.0 mi Calm Calm - N/A   Clear
12:32 AM 24.3 °F - 17.2 °F 75% 30.39 in 10.0 mi Calm Calm - N/A   Clear
12:52 AM 25.3 °F - 18.3 °F 75% 30.39 in 10.0 mi Calm Calm - N/A   Clear
1:12 AM 23.9 °F - 17.8 °F 77% 30.39 in 10.0 mi Calm Calm - N/A   Clear
1:32 AM 22.3 °F 17.6 °F 15.6 °F 76% 30.40 in 10.0 mi South 3.5 mph - N/A   Clear
1:52 AM 22.6 °F 16.5 °F 16.9 °F 79% 30.40 in 10.0 mi South 4.6 mph - N/A   Clear
2:12 AM 21.9 °F 17.2 °F 15.8 °F 77% 30.41 in 10.0 mi SSW 3.5 mph - N/A   Clear
2:32 AM 21.0 °F 14.6 °F 14.9 °F 77% 30.41 in 10.0 mi South 4.6 mph - N/A   Clear
3:12 AM 20.1 °F 12.3 °F 14.5 °F 79% 30.41 in 10.0 mi South 5.8 mph - N/A   Clear
3:32 AM 18.7 °F 13.5 °F 13.6 °F 81% 30.40 in 10.0 mi South 3.5 mph - N/A   Clear
3:52 AM 20.8 °F - 15.4 °F 80% 30.40 in 10.0 mi Calm Calm - N/A   Clear
4:12 AM 19.0 °F 13.9 °F 13.6 °F 79% 30.41 in 10.0 mi SSW 3.5 mph - N/A   Clear
4:32 AM 19.8 °F 13.2 °F 14.9 °F 81% 30.42 in 10.0 mi SSW 4.6 mph - N/A   Clear
4:52 AM 18.5 °F 11.7 °F 13.6 °F 81% 30.42 in 10.0 mi SW 4.6 mph - N/A   Clear
5:12 AM 19.2 °F 14.1 °F 14.5 °F 82% 30.42 in 10.0 mi SSW 3.5 mph - N/A   Clear
5:32 AM 17.4 °F - 12.9 °F 83% 30.42 in 10.0 mi Calm Calm - N/A   Clear
5:52 AM 18.5 °F - 14.0 °F 83% 30.42 in 10.0 mi Calm Calm - N/A   Clear
6:12 AM 19.4 °F - 15.1 °F 83% 30.42 in 10.0 mi Calm Calm - N/A   Clear
6:32 AM 19.8 °F - 15.8 °F 85% 30.42 in 10.0 mi Calm Calm - N/A   Clear
6:52 AM 18.7 °F 11.9 °F 14.7 °F 85% 30.43 in 10.0 mi SSW 4.6 mph - N/A   Clear
7:12 AM 19.9 °F - 15.4 °F 83% 30.42 in 10.0 mi Calm Calm - N/A   Clear
7:32 AM 19.4 °F - 14.7 °F 82% 30.42 in 10.0 mi Calm Calm - N/A   Clear
7:52 AM 19.9 °F - 14.9 °F 81% 30.42 in 10.0 mi Calm Calm - N/A   Clear
8:12 AM 21.9 °F - 17.6 °F 83% 30.43 in 10.0 mi Calm Calm - N/A   Clear
8:32 AM 23.4 °F - 18.9 °F 83% 30.43 in 10.0 mi Calm Calm - N/A   Clear
9:12 AM 28.8 °F - 21.9 °F 76% 30.43 in 10.0 mi Calm Calm - N/A   Clear
9:32 AM 32.0 °F - 24.3 °F 73% 30.43 in 10.0 mi Calm Calm - N/A   Clear
9:52 AM 36.5 °F - 24.8 °F 63% 30.42 in 10.0 mi Calm Calm - N/A   Clear
10:12 AM 41.2 °F 36.0 °F 22.3 °F 47% 30.42 in 10.0 mi SSE 8.1 mph - N/A   Clear
10:32 AM 42.6 °F 36.3 °F 21.7 °F 44% 30.41 in 10.0 mi SSE 11.5 mph - N/A   Clear
11:12 AM 43.9 °F 38.8 °F 21.2 °F 41% 30.40 in 10.0 mi SE 9.2 mph - N/A   Clear
11:32 AM 45.7 °F 42.0 °F 19.9 °F 36% 30.40 in 10.0 mi SE 6.9 mph - N/A   Clear
11:52 AM 46.0 °F 41.4 °F 19.6 °F 35% 30.39 in 10.0 mi SSE 9.2 mph - N/A   Clear
12:12 PM 46.4 °F 43.5 °F 18.9 °F 33% 30.37 in 10.0 mi SE 5.8 mph - N/A   Clear
12:32 PM 47.5 °F - 17.2 °F 30% 30.37 in 10.0 mi South 8.1 mph - N/A   Clear
12:52 PM 48.0 °F - 17.2 °F 29% 30.36 in 10.0 mi SSE 6.9 mph - N/A   Clear
1:32 PM 50.2 °F - 15.4 °F 25% 30.33 in 10.0 mi SE 9.2 mph - N/A   Clear
1:52 PM 51.4 °F - 12.6 °F 21% 30.32 in 10.0 mi SSE 6.9 mph 16.1 mph N/A   Clear
2:12 PM 52.2 °F - 10.2 °F 19% 30.31 in 10.0 mi South 10.4 mph 18.4 mph N/A   Clear
2:32 PM 52.0 °F - 10.6 °F 19% 30.30 in 10.0 mi SSE 11.5 mph 20.7 mph N/A   Clear
2:52 PM 53.1 °F - 11.3 °F 19% 30.29 in 10.0 mi SSE 12.7 mph 19.6 mph N/A   Clear
3:12 PM 53.4 °F - 11.3 °F 19% 30.28 in 10.0 mi South 10.4 mph 19.6 mph N/A   Clear
3:32 PM 53.6 °F - 12.7 °F 20% 30.27 in 10.0 mi South 9.2 mph - N/A   Clear
3:52 PM 53.8 °F - 14.0 °F 21% 30.26 in 10.0 mi South 13.8 mph 18.4 mph N/A   Clear
4:12 PM 53.6 °F - 14.5 °F 21% 30.25 in 10.0 mi South 11.5 mph 18.4 mph N/A   Clear
4:32 PM 53.2 °F - 14.9 °F 22% 30.24 in 10.0 mi South 13.8 mph 18.4 mph N/A   Clear
5:12 PM 52.7 °F - 14.0 °F 22% 30.23 in 10.0 mi SSE 15.0 mph 20.7 mph N/A   Clear
5:52 PM 51.4 °F - 13.8 °F 22% 30.20 in 10.0 mi South 10.4 mph - N/A   Clear
6:12 PM 50.5 °F - 13.6 °F 23% 30.19 in 10.0 mi SSE 9.2 mph - N/A   Clear
6:32 PM 49.8 °F - 13.8 °F 24% 30.17 in 10.0 mi SE 6.9 mph - N/A   Clear
6:51 PM 48.9 °F - 14.4 °F 25% 30.16 in 10.0 mi SE 5.8 mph - N/A   Clear
7:12 PM 47.7 °F - 14.7 °F 27% 30.15 in 10.0 mi SE 5.8 mph - N/A   Clear
7:32 PM 47.3 °F - 14.7 °F 27% 30.14 in 10.0 mi ESE 5.8 mph - N/A   Clear
7:52 PM 46.6 °F - 15.1 °F 28% 30.13 in 10.0 mi SE 5.8 mph - N/A   Clear
8:12 PM 45.9 °F 43.6 °F 15.3 °F 29% 30.13 in 10.0 mi SE 4.6 mph - N/A   Clear
8:32 PM 45.9 °F 42.3 °F 15.1 °F 29% 30.12 in 10.0 mi SE 6.9 mph - N/A   Clear
9:12 PM 46.4 °F 41.9 °F 15.6 °F 29% 30.11 in 10.0 mi SSE 9.2 mph - N/A   Overcast
9:32 PM 47.7 °F - 15.4 °F 28% 30.10 in 10.0 mi SSE 9.2 mph - N/A   Overcast
9:52 PM 48.2 °F - 16.5 °F 28% 30.09 in 10.0 mi SSE 11.5 mph 17.3 mph N/A   Overcast
10:12 PM 48.4 °F - 17.4 °F 29% 30.09 in 10.0 mi SSE 13.8 mph 17.3 mph N/A   Overcast
10:52 PM 49.1 °F - 17.4 °F 28% 30.07 in 10.0 mi SSE 15.0 mph 19.6 mph N/A   Overcast
11:12 PM 49.1 °F - 18.5 °F 30% 30.06 in 10.0 mi South 13.8 mph 18.4 mph N/A   Overcast
11:32 PM 49.3 °F - 20.3 °F 32% 30.06 in 10.0 mi South 15.0 mph 18.4 mph N/A   Overcast
11:52 PM 48.4 °F - 24.3 °F 39% 30.04 in 10.0 mi South 17.3 mph 23.0 mph N/A Rain Light Rain